Terminal Aerodrome Forecast
Issued by NWS Grand Forks, ND

Home | Current Version | Previous Version | Graphics & Text | Print | Product List | Glossary On
Versions: 1 2 3 4 5 6 7 8 9 10 11 12 13 14 15 16 17 18
176
FTUS43 KFGF 041549 AAB
TAFGFK
TAF AMD
KGFK 041549Z 0416/0512 33009KT P6SM -SN BKN028
      TEMPO 0416/0419 BKN040
     FM042000 29007KT P6SM BKN060
     FM050000 18006KT P6SM BKN120=

USA.gov is the U.S. government's official web portal to all federal, state and local government web resources and services.